Reno, NV

8:29 PM PDT on June 28, 2017 (GMT -0700)
Reno-Tahoe International

Weather History for KRNO - September, 2013

Change the Weather History Date:

Friday, September 20, 2013

  Actual Average Record
Temperature  
Mean Temperature 66 °F 64 °F  
Max Temperature 84 °F 81 °F 94 °F (2015)
Min Temperature 47 °F 47 °F 24 °F (1965)
Degree Days  
Heating Degree Days 0 3  
Month to date heating degree days 8 36  
Since 1 July heating degree days 8 46  
Cooling Degree Days 1 2  
Month to date cooling degree days 139 73  
Year to date cooling degree days 1172 819  
Growing Degree Days 15 (Base 50)    
Moisture  
Dew Point 29 °F    
Average Humidity 34    
Maximum Humidity 56    
Minimum Humidity 11    
Precipitation  
Precipitation 0.00 in 0.01 in 0.05 in (1944)
Month to date precipitation T 0.19  
Year to date precipitation 3.04 4.88  
Snow  
Snow 0.00 in 0.00 in 0.00 in ()
Month to date snowfall 0.0 0.0  
Since 1 July snowfall T 0.0  
Since 1 September snowfall 0.0 0.0  
Snow Depth 0.00 in    
Sea Level Pressure  
Sea Level Pressure 29.76 in    
Wind  
Wind Speed 8 mph (SSW)    
Max Wind Speed 33 mph    
Max Gust Speed 39 mph    
Visibility 10 miles    
Events      
T = Trace of Precipitation, MM = Missing Value Source: NWS Daily Summary

Daily Weather History Graph

Daily Weather History Graph

Search for Another Location

Airport or City:

Trip Planner

Search our weather history database for the weather conditions in past years. The results will help you decide how hot, cold, wet, or windy it might be!

Date:

Astronomy

Sep. 20, 2013 Rise Set
Actual Time 6:45 AM PDT 6:58 PM PDT
Civil Twilight 6:18 AM PDT 7:25 PM PDT
Nautical Twilight 5:46 AM PDT 7:57 PM PDT
Astronomical Twilight 5:14 AM PDT 8:29 PM PDT
Moon 7:36 PM PDT (9/20) 8:04 AM PDT (9/20)
Length of Visible Light 13h 07m
Length of Day
12h 13m
Full, 98% of the Moon is Illuminated
Sep 20
Full
Sep 26
Last Quarter
Oct 4
New
Oct 11
First Quarter
Oct 18
Full

Hourly Weather History & Observations

Time (PDT) Temp. Dew Point Humidity Pressure Visibility Wind Dir Wind Speed Gust Speed Precip Events Conditions
12:55 AM 57.9 °F 26.1 °F 30% 29.83 in 10.0 mi Calm Calm - N/A   Clear
1:55 AM 55.9 °F 30.9 °F 39% 29.83 in 10.0 mi Calm Calm - N/A   Clear
2:55 AM 54.0 °F 32.0 °F 43% 29.82 in 10.0 mi Calm Calm - N/A   Clear
3:55 AM 51.1 °F 34.0 °F 52% 29.83 in 10.0 mi Calm Calm - N/A   Clear
4:55 AM 50.0 °F 33.1 °F 52% 29.83 in 10.0 mi Calm Calm - N/A   Clear
5:55 AM 48.9 °F 32.0 °F 52% 29.82 in 10.0 mi Calm Calm - N/A   Clear
6:55 AM 48.0 °F 33.1 °F 56% 29.84 in 10.0 mi Calm Calm - N/A   Clear
7:55 AM 51.1 °F 33.1 °F 50% 29.83 in 10.0 mi Calm Calm - N/A   Clear
8:55 AM 57.0 °F 30.9 °F 37% 29.81 in 10.0 mi Calm Calm - N/A   Clear
9:55 AM 63.0 °F 28.9 °F 28% 29.79 in 10.0 mi Calm Calm - N/A   Clear
10:55 AM 70.0 °F 28.0 °F 21% 29.75 in 10.0 mi Calm Calm - N/A   Clear
11:55 AM 82.0 °F 26.1 °F 13% 29.69 in 10.0 mi SSW 16.1 mph 29.9 mph N/A   Partly Cloudy
12:55 PM 82.9 °F 23.0 °F 11% 29.68 in 10.0 mi SW 17.3 mph 33.4 mph N/A   Partly Cloudy
1:55 PM 82.9 °F 25.0 °F 12% 29.67 in 10.0 mi SW 23.0 mph 33.4 mph N/A   Partly Cloudy
2:55 PM 82.0 °F 25.0 °F 12% 29.67 in 10.0 mi SW 31.1 mph 36.8 mph N/A   Partly Cloudy
3:55 PM 81.0 °F 28.0 °F 14% 29.68 in 10.0 mi SSW 20.7 mph 29.9 mph N/A   Partly Cloudy
4:55 PM 79.0 °F 28.9 °F 16% 29.68 in 10.0 mi SW 12.7 mph 24.2 mph N/A   Scattered Clouds
5:55 PM 75.0 °F 27.0 °F 17% 29.69 in 10.0 mi SW 12.7 mph 20.7 mph N/A   Partly Cloudy
6:55 PM 71.1 °F 28.0 °F 20% 29.72 in 10.0 mi SSW 6.9 mph - N/A   Scattered Clouds
7:55 PM 68.0 °F 28.0 °F 22% 29.73 in 10.0 mi South 6.9 mph - N/A   Partly Cloudy
8:55 PM 66.0 °F 27.0 °F 23% 29.76 in 10.0 mi WNW 9.2 mph - N/A   Clear
9:55 PM 63.0 °F 27.0 °F 26% 29.76 in 10.0 mi SSE 6.9 mph - N/A   Partly Cloudy
10:55 PM 61.0 °F 28.0 °F 29% 29.75 in 10.0 mi SSE 16.1 mph 20.7 mph N/A   Partly Cloudy
11:55 PM 57.9 °F 30.0 °F 35% 29.73 in 10.0 mi Calm Calm - N/A   Clear